Waarnemingen

Advertentie
Mijn weer
Lossiemouth, Groot Brittannië (3068): temperatuur & dauwpunt: 10.01.2018 09:00:00 - 16.01.2018 09:00:00 (GMT)Lossiemouth, Groot Brittannië (3068): windsnelheid & windstoten: 10.01.2018 09:00:00 - 16.01.2018 09:00:00 (GMT)Lossiemouth, Groot Brittannië (3068): windrichting: 10.01.2018 09:00:00 - 16.01.2018 09:00:00 (GMT)Lossiemouth, Groot Brittannië (3068): luchtdruk: 10.01.2018 09:00:00 - 16.01.2018 09:00:00 (GMT)Lossiemouth, Groot Brittannië (3068): zicht: 10.01.2018 09:00:00 - 16.01.2018 09:00:00 (GMT)Lossiemouth, Groot Brittannië (3068): neerslag: 10.01.2018 09:00:00 - 16.01.2018 09:00:00 (GMT)
Datum & Tijd tt [°C] td [°C] ff [km/u] ff [kn] fx [km/u] fx [kn] dd ppp [hPa] vv [km] rr [mm]
16.01.2018 09:00:00 0,0 -1,1 15 8 - - ZW 977,5 3,0 0,0
16.01.2018 08:00:00 -0,1 -1,7 18 10 - - ZZW 977,2 10 0,0
16.01.2018 07:00:00 0,4 -1,2 29 16 - - WZW 977,2 10 0,0
16.01.2018 06:00:00 -0,8 -2,4 13 7 - - ZW 977,1 10 0,0
16.01.2018 05:00:00 -0,1 -1,0 22 12 - - ZW 977,4 10 0,0
16.01.2018 04:00:00 -0,1 -1,8 21 11 - - WZW 977,9 2,5 0,0
16.01.2018 03:00:00 0,4 -1,9 16 9 - - WZW 977,9 10 0,0
16.01.2018 02:00:00 -0,2 -1,4 22 12 - - WZW 977,7 10 0,0
16.01.2018 01:00:00 0,7 -1,5 24 13 - - WZW 978,1 10 0,0
16.01.2018 00:00:00 0,2 -0,2 16 9 - - ZW 978,2 10 0,0
15.01.2018 23:00:00 0,8 -0,4 15 8 - - W 978,4 1,2 0,0
15.01.2018 22:00:00 1,7 -1,2 28 15 - - WZW 978,2 10 0,0
15.01.2018 21:00:00 1,4 -1,5 15 8 - - W 978,3 10 0,0
15.01.2018 20:00:00 1,2 -1,6 15 8 - - WZW 978,4 10 0,0
15.01.2018 19:00:00 1,9 -1,0 15 8 - - ZW 979,0 10 0,0
15.01.2018 18:00:00 2,2 -0,9 21 11 - - ZW 978,9 10 0,0
15.01.2018 17:00:00 2,3 -0,5 22 12 - - WZW 979,5 10 0,0
15.01.2018 16:00:00 3,0 0,1 24 13 - - WZW 980,3 10 0,0
15.01.2018 15:00:00 4,4 1,0 18 10 - - WZW 980,6 10 0,0
15.01.2018 14:00:00 4,4 1,2 26 14 - - WZW 981,0 10 0,2
15.01.2018 13:00:00 5,1 1,0 22 12 - - ZW 981,4 10 0,0
15.01.2018 12:00:00 5,0 1,5 13 7 - - ZZW 982,2 10 0,0
15.01.2018 11:00:00 4,6 1,9 15 8 - - ZW 982,8 10 0,0
15.01.2018 10:00:00 4,7 1,7 24 13 - - WZW 983,6 10 0,0
15.01.2018 09:00:00 2,3 0,9 9 5 - - Z 984,3 10 0,0
15.01.2018 08:00:00 3,2 2,3 9 5 - - ZZW 984,8 10 0,0
15.01.2018 07:00:00 3,0 2,6 9 5 - - ZW 984,9 10 0,2
15.01.2018 06:00:00 5,2 3,7 16 9 - - ZW 985,7 7 0,2
15.01.2018 05:00:00 5,3 2,6 15 8 - - ZW 985,1 10 0,0
15.01.2018 04:00:00 6,6 5,0 16 9 - - ZW 985,7 10 0,0
15.01.2018 03:00:00 7,3 4,0 15 8 - - ZW 985,7 10 0,0
15.01.2018 02:00:00 7,5 3,8 24 13 48 26 ZW 985,9 10 0,0
15.01.2018 01:00:00 8,7 2,7 34 18 54 29 ZW 986,4 10 0,0
15.01.2018 00:00:00 8,2 1,8 18 10 - - ZZW 987,1 10 0,0
14.01.2018 23:00:00 7,3 1,0 24 13 - - Z 988,1 10 0,0
14.01.2018 22:00:00 7,1 0,8 21 11 52 28 Z 989,2 10 0,0
14.01.2018 21:00:00 7,5 0,2 31 17 63 34 ZZW 990,5 10 0,0
14.01.2018 20:00:00 7,7 0,5 39 21 65 35 Z 991,6 10 0,0
14.01.2018 19:00:00 7,9 0,3 42 23 68 37 ZZW 992,7 10 0,0
14.01.2018 18:00:00 7,9 0,6 37 20 55 30 Z 994,6 10 0,0
14.01.2018 17:00:00 8,1 -0,3 29 16 50 27 Z 996,3 10 0,0
14.01.2018 16:00:00 7,8 0,3 29 16 54 29 Z 998,6 10 0,0
14.01.2018 15:00:00 7,7 0,4 31 17 50 27 Z 1000,5 40 0,0
14.01.2018 14:00:00 7,7 0,1 24 13 - - Z 1002,0 10 0,0
14.01.2018 13:00:00 7,2 0,4 29 16 52 28 Z 1003,5 10 0,0
14.01.2018 12:00:00 7,5 0,5 28 15 57 31 Z 1005,3 10 0,0
14.01.2018 11:00:00 7,6 0,8 26 14 46 25 Z 1006,7 10 0,0
14.01.2018 10:00:00 6,0 1,4 22 12 46 25 Z 1008,4 10 0,0
14.01.2018 09:00:00 6,0 1,3 21 11 - - Z 1009,0 10 0,0
14.01.2018 08:00:00 5,9 2,1 22 12 - - Z 1009,2 10 0,0
14.01.2018 07:00:00 5,8 1,9 24 13 - - Z 1009,7 10 0,0
14.01.2018 06:00:00 5,5 1,7 18 10 - - Z 1010,9 10 0,0
14.01.2018 05:00:00 6,0 2,1 18 10 - - ZZO 1011,6 10 0,0
14.01.2018 04:00:00 5,6 2,2 11 6 - - ZZO 1011,9 10 0,0
14.01.2018 03:00:00 5,8 1,9 24 13 - - ZZO 1012,2 10 0,0
14.01.2018 02:00:00 5,8 1,7 18 10 - - Z 1013,5 10 0,0
14.01.2018 01:00:00 5,2 2,0 13 7 - - ZZO 1013,9 10 0,0
14.01.2018 00:00:00 5,7 2,1 16 9 - - Z 1014,4 10 0,0
13.01.2018 23:00:00 5,8 1,6 16 9 - - Z 1014,4 10 0,0
13.01.2018 22:00:00 5,7 1,6 16 9 - - ZZO 1014,2 10 0,0
13.01.2018 21:00:00 5,5 1,3 26 14 - - Z 1014,4 10 0,0
13.01.2018 20:00:00 5,8 0,9 22 12 - - Z 1014,2 10 0,0
13.01.2018 19:00:00 5,8 0,6 21 11 - - Z 1013,7 10 0,0
13.01.2018 18:00:00 5,7 0,7 24 13 - - Z 1013,9 10 0,0
13.01.2018 17:00:00 5,9 0,1 22 12 - - Z 1014,0 10 0,0
13.01.2018 16:00:00 5,5 0,7 26 14 46 25 ZZO 1014,0 10 0,0
13.01.2018 15:00:00 6,0 0,5 26 14 - - ZZO 1014,0 10 0,0
13.01.2018 14:00:00 6,3 1,1 11 6 - - ZZO 1014,5 10 0,0
13.01.2018 13:00:00 6,7 0,3 24 13 - - Z 1014,5 10 0,0
13.01.2018 12:00:00 6,7 0,0 22 12 46 25 Z 1015,2 10 0,0
13.01.2018 11:00:00 6,2 0,1 29 16 - - ZZO 1015,6 10 0,0
13.01.2018 10:00:00 5,6 0,6 24 13 - - ZZO 1015,8 10 0,0
13.01.2018 09:00:00 4,8 0,7 16 9 - - ZZO 1015,8 10 0,0
13.01.2018 08:00:00 4,6 1,0 22 12 - - ZZO 1016,1 10 0,0
13.01.2018 07:00:00 4,5 0,4 16 9 - - ZO 1016,4 10 0,0
13.01.2018 06:00:00 4,1 -0,6 21 11 - - ZO 1016,4 10 0,0
13.01.2018 05:00:00 4,0 -0,8 15 8 - - ZO 1016,7 10 0,0
13.01.2018 04:00:00 3,9 -0,2 11 6 - - ZZO 1017,1 10 0,0
13.01.2018 03:00:00 5,5 0,2 24 13 52 28 Z 1017,2 10 0,0
13.01.2018 02:00:00 5,9 -0,6 16 9 46 25 ZZO 1017,8 10 0,0
13.01.2018 01:00:00 5,5 -0,4 29 16 46 25 Z 1017,7 10 0,0
13.01.2018 00:00:00 5,3 -0,3 15 8 52 28 ZZO 1018,4 40 0,0
12.01.2018 23:00:00 5,7 -0,3 28 15 57 31 Z 1018,4 10 0,0
12.01.2018 22:00:00 5,9 0,5 26 14 50 27 Z 1019,1 10 0,0
12.01.2018 21:00:00 6,0 0,7 26 14 - - ZZO 1019,4 10 0,0
12.01.2018 20:00:00 5,6 1,1 24 13 - - ZZO 1019,6 10 0,0
12.01.2018 19:00:00 5,9 0,6 24 13 - - ZZO 1019,9 10 0,0
12.01.2018 18:00:00 5,8 0,4 26 14 - - ZZO 1020,2 10 0,0
12.01.2018 17:00:00 6,3 0,0 29 16 - - ZZO 1020,3 10 0,0
12.01.2018 16:00:00 5,9 0,5 21 11 - - ZZO 1020,6 10 0,0
12.01.2018 15:00:00 6,8 0,3 22 12 59 32 Z 1021,0 10 0,0
12.01.2018 14:00:00 7,7 0,7 31 17 57 31 Z 1021,0 10 0,0
12.01.2018 13:00:00 7,6 2,0 31 17 48 26 Z 1021,1 10 0,0
12.01.2018 12:00:00 7,2 2,3 29 16 50 27 ZZO 1021,9 10 0,0
12.01.2018 11:00:00 6,7 1,5 18 10 - - ZO 1022,8 10 0,0
12.01.2018 10:00:00 5,0 1,5 21 11 - - ZO 1023,1 10 0,0
12.01.2018 09:00:00 1,9 0,5 9 5 - - ZZO 1023,6 10 0,0
12.01.2018 08:00:00 2,5 0,5 13 7 - - OZO 1023,6 10 0,0
12.01.2018 07:00:00 1,4 0,1 9 5 - - OZO 1024,2 10 0,0
12.01.2018 06:00:00 -2,4 -3,0 2 1 - - OZO 1024,0 10 0,0
12.01.2018 05:00:00 -0,3 -1,6 9 5 - - ZZO 1024,0 10 0,0
12.01.2018 04:00:00 0,6 -1,1 11 6 - - ZO 1024,4 10 0,0
12.01.2018 03:00:00 -1,3 -1,8 11 6 - - Z 1024,8 10 0,0
12.01.2018 02:00:00 0,3 -0,3 13 7 - - ZO 1024,9 10 0,0
12.01.2018 01:00:00 0,5 -1,2 15 8 - - Z 1025,2 35 0,0
12.01.2018 00:00:00 -1,3 -1,7 9 5 - - Z 1025,6 10 0,0
11.01.2018 23:00:00 -0,7 -1,7 9 5 - - ZO 1025,3 10 0,0
11.01.2018 22:00:00 -0,2 -0,7 8 4 - - ZO 1025,6 10 0,0
11.01.2018 21:00:00 -1,3 -1,7 5 3 - - Z 1026,2 10 0,0
11.01.2018 20:00:00 -0,3 -0,5 9 5 - - ZZO 1025,7 10 0,0
11.01.2018 19:00:00 0,2 0,0 9 5 - - ZO 1024,8 10 0,0
11.01.2018 18:00:00 0,7 0,2 8 4 - - ZO 1024,8 10 0,0
11.01.2018 17:00:00 1,1 0,3 5 3 - - ZZO 1024,6 10 0,0
11.01.2018 16:00:00 2,1 0,6 0 0 - - N 1024,3 10 0,0
11.01.2018 15:00:00 4,2 2,0 4 2 - - W 1023,6 10 0,0
11.01.2018 14:00:00 5,8 2,8 5 3 - - WZW 1023,0 10 0,0
11.01.2018 13:00:00 5,6 2,6 5 3 - - WZW 1022,5 10 0,0
11.01.2018 12:00:00 4,6 3,1 5 3 - - WZW 1022,3 50 0,0
11.01.2018 11:00:00 2,0 0,8 13 7 - - WZW 1022,2 10 0,0
11.01.2018 10:00:00 1,6 0,5 13 7 - - WZW 1021,5 10 0,0
11.01.2018 09:00:00 1,9 0,9 11 6 - - WZW 1020,6 10 0,0
11.01.2018 08:00:00 2,7 2,0 13 7 - - WZW 1019,7 35 0,0
11.01.2018 07:00:00 2,4 1,4 13 7 - - W 1018,6 10 0,0
11.01.2018 06:00:00 2,4 1,7 13 7 - - WZW 1017,7 10 0,0
11.01.2018 05:00:00 3,6 2,8 11 6 - - WZW 1016,9 10 0,0
11.01.2018 04:00:00 3,5 2,9 13 7 - - WZW 1016,0 10 0,0
11.01.2018 03:00:00 3,6 3,0 9 5 - - WZW 1015,0 10 0,0
11.01.2018 02:00:00 4,4 3,5 15 8 - - W 1014,5 10 -
11.01.2018 01:00:00 4,0 3,6 11 6 - - W 1013,5 8 0,6
11.01.2018 00:00:00 3,8 3,4 13 7 - - WZW 1012,5 8 0,4
10.01.2018 23:00:00 4,2 3,5 15 8 - - WZW 1011,9 10 0,2
10.01.2018 22:00:00 4,7 3,5 15 8 - - W 1011,0 10 0,2
10.01.2018 21:00:00 4,6 3,4 13 7 - - W 1010,1 10 0,0
10.01.2018 20:00:00 3,7 2,9 11 6 - - WZW 1009,3 10 0,0
10.01.2018 19:00:00 3,8 3,1 11 6 - - WZW 1008,6 10 0,0
10.01.2018 18:00:00 3,3 2,3 11 6 - - WZW 1007,9 10 0,0
10.01.2018 17:00:00 5,1 3,6 11 6 - - WZW 1007,2 10 0,0
10.01.2018 16:00:00 5,3 3,2 13 7 - - WZW 1006,3 10 0,0
10.01.2018 15:00:00 5,7 2,8 11 6 - - W 1005,4 10 0,0
10.01.2018 14:00:00 5,8 2,8 18 10 - - W 1004,8 10 0,0
10.01.2018 13:00:00 5,5 2,8 8 4 - - W 1004,3 10 0,0
10.01.2018 12:00:00 5,0 3,3 2 1 - - ZZW 1004,0 10 0,0
10.01.2018 11:00:00 4,4 2,4 5 3 - - ZO 1003,6 10 0,0
10.01.2018 10:00:00 3,5 2,0 9 5 - - ZZO 1003,1 10 0,0
10.01.2018 09:00:00 4,1 1,9 9 5 - - O 1002,2 10 0,0

tt = temperatuur
td = dauwpunt
ff = windsnelheid
fx = windstoten
dd = windrichting
ppp = luchtdruk
vv = zicht
rr = neerslag

Weerstations in de omgeving